ASA706 KSEA-KOAK

Flight info

Callsign ASA706
Flight time N/A
Altitude 39000
Route HAROB6 HISKU Q5 HUPTU SPAMY WNDSR2
Aircraft B739/M-SDE3FGIJ4J7P2RWZ/LB1D1

Departure

Time 2026-05-06 14:27
Airport Seattle–Tacoma International Airport (KSEA)

Arrival

Time N/A
Airport San Francisco Bay Oakland International Airport (KOAK)
Time Latitude Longitude Altitude Speed Heading
2026-05-06 14:00 47.44636 -122.30307 403 ft 0 kts 245°
2026-05-06 14:17 47.44637 -122.30303 403 ft 3 kts 244°
2026-05-06 14:17 47.44651 -122.30270 402 ft 4 kts 229°
2026-05-06 14:17 47.44663 -122.30240 399 ft 2 kts 268°
2026-05-06 14:18 47.44661 -122.30210 401 ft 2 kts 282°
2026-05-06 14:18 47.44661 -122.30208 400 ft 1 kts 282°
2026-05-06 14:20 47.44665 -122.30232 401 ft 5 kts 288°
2026-05-06 14:20 47.44696 -122.30302 403 ft 10 kts 309°
2026-05-06 14:21 47.44739 -122.30377 404 ft 9 kts 311°
2026-05-06 14:21 47.44779 -122.30452 406 ft 9 kts 299°
2026-05-06 14:21 47.44795 -122.30542 406 ft 9 kts 287°
2026-05-06 14:21 47.44828 -122.30615 401 ft 9 kts 329°
2026-05-06 14:22 47.44910 -122.30628 406 ft 14 kts
2026-05-06 14:22 47.45027 -122.30627 410 ft 19 kts
2026-05-06 14:22 47.45166 -122.30626 409 ft 20 kts 360°
2026-05-06 14:22 47.45303 -122.30625 418 ft 19 kts
2026-05-06 14:23 47.45435 -122.30622 422 ft 19 kts
2026-05-06 14:23 47.45562 -122.30622 432 ft 18 kts
2026-05-06 14:23 47.45686 -122.30621 432 ft 17 kts
2026-05-06 14:23 47.45805 -122.30619 428 ft 17 kts 360°
2026-05-06 14:24 47.45921 -122.30619 431 ft 16 kts
2026-05-06 14:24 47.46033 -122.30618 431 ft 16 kts
2026-05-06 14:24 47.46140 -122.30617 434 ft 15 kts 360°
2026-05-06 14:24 47.46244 -122.30617 434 ft 15 kts
2026-05-06 14:25 47.46336 -122.30617 438 ft 11 kts 354°
2026-05-06 14:25 47.46376 -122.30693 442 ft 10 kts 268°
2026-05-06 14:25 47.46366 -122.30770 430 ft 7 kts 229°
2026-05-06 14:25 47.46341 -122.30777 439 ft 0 kts 180°
2026-05-06 14:26 47.46292 -122.30777 433 ft 25 kts 181°
2026-05-06 14:27 47.45859 -122.30781 427 ft 98 kts 180°
2026-05-06 14:27 47.44970 -122.30792 431 ft 151 kts 182°
2026-05-06 14:27 47.43886 -122.30774 952 ft 160 kts 181°
2026-05-06 14:27 47.42736 -122.30772 1543 ft 168 kts 181°
2026-05-06 14:28 47.41526 -122.30799 2040 ft 186 kts 182°
2026-05-06 14:28 47.40159 -122.30831 2371 ft 207 kts 182°
2026-05-06 14:28 47.38677 -122.30898 2829 ft 221 kts 182°
2026-05-06 14:28 47.37052 -122.30977 3122 ft 247 kts 182°
2026-05-06 14:29 47.35289 -122.31044 3777 ft 257 kts 182°
2026-05-06 14:29 47.33533 -122.31585 4593 ft 261 kts 206°
2026-05-06 14:29 47.32139 -122.33297 5366 ft 264 kts 237°
2026-05-06 14:29 47.31466 -122.35806 6178 ft 266 kts 259°
2026-05-06 14:30 47.31196 -122.38525 6976 ft 269 kts 264°
2026-05-06 14:30 47.30938 -122.41269 7760 ft 272 kts 263°
2026-05-06 14:30 47.30667 -122.44046 8562 ft 275 kts 266°
2026-05-06 14:30 47.30644 -122.46867 9381 ft 276 kts 274°
2026-05-06 14:31 47.30758 -122.49693 10210 ft 277 kts 275°
2026-05-06 14:31 47.30878 -122.52625 10516 ft 299 kts 275°
2026-05-06 14:31 47.30994 -122.55779 10842 ft 315 kts 274°
2026-05-06 14:31 47.31099 -122.59044 11480 ft 321 kts 274°
2026-05-06 14:32 47.31195 -122.62341 12254 ft 322 kts 273°
2026-05-06 14:32 47.31287 -122.65650 13040 ft 324 kts 273°
2026-05-06 14:32 47.31378 -122.68982 13820 ft 327 kts 273°
2026-05-06 14:32 47.31466 -122.72306 14527 ft 330 kts 272°
2026-05-06 14:33 47.31539 -122.75705 15247 ft 334 kts 269°
2026-05-06 14:33 47.31095 -122.79066 15965 ft 338 kts 251°
2026-05-06 14:33 47.30230 -122.82303 16707 ft 341 kts 250°
2026-05-06 14:33 47.29337 -122.85557 17419 ft 344 kts 250°
2026-05-06 14:34 47.28438 -122.88838 18131 ft 348 kts 250°
2026-05-06 14:34 47.27537 -122.92162 18775 ft 351 kts 250°
2026-05-06 14:34 47.26636 -122.95516 19421 ft 353 kts 250°
2026-05-06 14:34 47.25730 -122.98896 20085 ft 355 kts 250°
2026-05-06 14:35 47.24781 -123.02270 20720 ft 359 kts 244°
2026-05-06 14:35 47.23283 -123.05252 21331 ft 368 kts 227°
2026-05-06 14:35 47.21279 -123.07634 21982 ft 373 kts 220°
2026-05-06 14:35 47.19167 -123.09898 22582 ft 377 kts 220°
2026-05-06 14:36 47.17026 -123.12167 23166 ft 381 kts 220°
2026-05-06 14:36 47.14876 -123.14476 23763 ft 383 kts 221°
2026-05-06 14:36 47.12729 -123.16813 24286 ft 386 kts 221°
2026-05-06 14:36 47.10568 -123.19172 24797 ft 389 kts 220°
2026-05-06 14:37 47.08136 -123.21023 25242 ft 403 kts 202°
2026-05-06 14:37 47.05375 -123.21700 25713 ft 417 kts 185°
2026-05-06 14:37 47.02460 -123.21480 26219 ft 422 kts 181°
2026-05-06 14:37 46.99516 -123.21136 26653 ft 426 kts 180°
2026-05-06 14:38 46.96541 -123.20758 27066 ft 431 kts 180°
2026-05-06 14:38 46.93544 -123.20376 27509 ft 435 kts 180°
2026-05-06 14:38 46.90519 -123.20002 27967 ft 437 kts 180°
2026-05-06 14:38 46.87477 -123.19640 28421 ft 440 kts 180°
2026-05-06 14:39 46.84415 -123.19287 28864 ft 443 kts 180°
2026-05-06 14:39 46.81323 -123.18939 29265 ft 447 kts 180°
2026-05-06 14:39 46.78216 -123.18594 29660 ft 450 kts 180°
2026-05-06 14:39 46.75080 -123.18249 30071 ft 453 kts 180°
2026-05-06 14:40 46.71926 -123.17902 30441 ft 456 kts 180°
2026-05-06 14:40 46.68755 -123.17554 30792 ft 458 kts 180°
2026-05-06 14:40 46.65571 -123.17204 31148 ft 460 kts 180°
2026-05-06 14:40 46.62369 -123.16852 31501 ft 462 kts 180°
2026-05-06 14:41 46.59159 -123.16500 31824 ft 464 kts 180°
2026-05-06 14:41 46.55933 -123.16146 32146 ft 466 kts 180°
2026-05-06 14:41 46.52698 -123.15792 32543 ft 465 kts 180°
2026-05-06 14:41 46.49479 -123.15438 33023 ft 463 kts 180°
2026-05-06 14:42 46.46277 -123.15085 33530 ft 460 kts 180°
2026-05-06 14:42 46.43088 -123.14736 33958 ft 459 kts 181°
2026-05-06 14:42 46.39907 -123.14389 34317 ft 459 kts 181°
2026-05-06 14:42 46.36762 -123.14047 34629 ft 459 kts 181°
2026-05-06 14:43 46.33585 -123.13703 34993 ft 457 kts 181°
2026-05-06 14:43 46.30379 -123.13354 35388 ft 455 kts 181°
2026-05-06 14:43 46.27273 -123.13017 35731 ft 453 kts 181°
2026-05-06 14:43 46.24129 -123.12676 36057 ft 452 kts 181°
2026-05-06 14:44 46.20990 -123.12337 36357 ft 452 kts 181°
2026-05-06 14:44 46.17852 -123.11999 36673 ft 451 kts 181°
2026-05-06 14:44 46.14726 -123.11661 37011 ft 450 kts 181°
2026-05-06 14:45 46.08494 -123.10989 37596 ft 448 kts 182°
2026-05-06 14:45 46.05377 -123.10654 37886 ft 448 kts 182°
2026-05-06 14:45 46.02275 -123.10321 38180 ft 447 kts 182°
2026-05-06 14:45 45.99179 -123.09989 38461 ft 446 kts 182°
2026-05-06 14:46 45.96083 -123.09657 38707 ft 445 kts 182°
2026-05-06 14:46 45.92994 -123.09326 38914 ft 445 kts 182°
2026-05-06 14:46 45.89908 -123.08997 39111 ft 445 kts 182°
2026-05-06 14:47 45.83709 -123.08338 39158 ft 448 kts 182°
2026-05-06 14:47 45.77491 -123.07675 39170 ft 448 kts 182°
2026-05-06 14:48 45.71321 -123.07017 39180 ft 447 kts 182°
2026-05-06 14:48 45.65138 -123.06360 39166 ft 445 kts 182°
2026-05-06 14:49 45.58952 -123.05706 39158 ft 445 kts 182°
2026-05-06 14:49 45.52782 -123.05056 39167 ft 445 kts 182°
2026-05-06 14:50 45.46609 -123.04406 39170 ft 445 kts 182°
2026-05-06 14:50 45.40428 -123.03757 39164 ft 446 kts 182°
2026-05-06 14:51 45.34228 -123.03107 39196 ft 446 kts 181°
2026-05-06 14:51 45.28024 -123.02458 39191 ft 448 kts 181°
2026-05-06 14:52 45.21793 -123.01808 39196 ft 449 kts 181°
2026-05-06 14:52 45.15608 -123.01163 39181 ft 450 kts 181°
2026-05-06 14:53 45.09351 -123.00512 39191 ft 451 kts 181°
2026-05-06 14:53 45.03047 -122.99858 39191 ft 451 kts 181°
2026-05-06 14:54 44.96816 -122.99213 39197 ft 452 kts 181°
2026-05-06 14:54 44.90534 -122.98564 39189 ft 453 kts 181°
2026-05-06 14:55 44.84254 -122.97916 39191 ft 452 kts 181°
2026-05-06 14:55 44.77971 -122.97269 39192 ft 452 kts 181°
2026-05-06 14:56 44.71693 -122.96625 39184 ft 452 kts 181°
2026-05-06 14:56 44.65416 -122.95981 39187 ft 452 kts 181°
2026-05-06 14:57 44.59143 -122.95338 39190 ft 452 kts 181°
2026-05-06 14:57 44.52865 -122.94696 39194 ft 452 kts 181°
2026-05-06 14:58 44.46594 -122.94151 39187 ft 450 kts 183°
2026-05-06 14:58 44.40341 -122.93990 39199 ft 450 kts 184°
2026-05-06 14:59 44.34114 -122.93885 39189 ft 450 kts 184°
2026-05-06 14:59 44.27844 -122.93732 39187 ft 451 kts 183°
2026-05-06 15:00 44.21566 -122.93549 39200 ft 451 kts 183°
2026-05-06 15:00 44.15283 -122.93356 39201 ft 452 kts 183°
2026-05-06 15:01 44.08994 -122.93163 39206 ft 452 kts 183°
2026-05-06 15:01 44.02687 -122.92971 39200 ft 453 kts 183°
2026-05-06 15:02 43.97444 -122.92813 39202 ft 453 kts 183°
2026-05-06 15:02 43.91130 -122.92622 39198 ft 454 kts 183°
2026-05-06 15:03 43.84810 -122.92432 39187 ft 455 kts 183°
2026-05-06 15:03 43.78485 -122.92242 39166 ft 455 kts 183°
2026-05-06 15:04 43.72157 -122.92052 39177 ft 454 kts 183°
2026-05-06 15:04 43.65840 -122.91863 39178 ft 454 kts 183°
2026-05-06 15:05 43.59528 -122.91675 39172 ft 453 kts 182°
2026-05-06 15:05 43.53266 -122.91487 39171 ft 453 kts 182°
2026-05-06 15:06 43.46964 -122.91301 39158 ft 453 kts 182°
2026-05-06 15:06 43.40667 -122.91114 39161 ft 452 kts 182°
2026-05-06 15:07 43.34374 -122.90927 39169 ft 452 kts 182°
2026-05-06 15:07 43.28081 -122.90741 39174 ft 452 kts 182°
2026-05-06 15:08 43.22164 -122.90567 39154 ft 452 kts 182°
2026-05-06 15:08 43.16183 -122.90391 39164 ft 453 kts 182°
2026-05-06 15:09 43.09926 -122.90207 39153 ft 453 kts 182°
2026-05-06 15:09 43.03620 -122.90022 39157 ft 454 kts 182°
2026-05-06 15:10 42.97307 -122.89838 39149 ft 454 kts 182°
2026-05-06 15:10 42.90979 -122.89653 39163 ft 455 kts 182°
2026-05-06 15:11 42.84643 -122.89468 39154 ft 456 kts 182°
2026-05-06 15:11 42.78293 -122.89283 39149 ft 457 kts 181°
2026-05-06 15:12 42.71933 -122.89097 39156 ft 457 kts 181°
2026-05-06 15:12 42.65570 -122.88912 39165 ft 458 kts 181°
2026-05-06 15:13 42.59199 -122.88727 39171 ft 458 kts 181°
2026-05-06 15:13 42.52835 -122.88541 39174 ft 458 kts 181°
2026-05-06 15:14 42.46460 -122.88357 39188 ft 458 kts 181°
2026-05-06 15:14 42.40090 -122.88176 39187 ft 458 kts 181°
2026-05-06 15:15 42.33715 -122.87992 39180 ft 458 kts 181°
2026-05-06 15:15 42.27337 -122.87806 39188 ft 459 kts 181°
2026-05-06 15:16 42.20950 -122.87620 39171 ft 459 kts 181°
2026-05-06 15:16 42.14551 -122.87433 39144 ft 460 kts 181°
2026-05-06 15:17 42.08196 -122.87249 39154 ft 460 kts 181°
2026-05-06 15:17 42.01784 -122.87063 39153 ft 461 kts 181°
2026-05-06 15:18 41.95365 -122.86878 39140 ft 462 kts 180°
2026-05-06 15:18 41.88940 -122.86692 39142 ft 462 kts 180°
2026-05-06 15:19 41.82518 -122.86507 39146 ft 462 kts 180°
2026-05-06 15:19 41.76080 -122.86322 39156 ft 462 kts 180°
2026-05-06 15:20 41.69650 -122.86137 39145 ft 462 kts 180°
2026-05-06 15:20 41.63227 -122.85953 39160 ft 461 kts 180°
2026-05-06 15:21 41.56852 -122.85770 39146 ft 461 kts 180°
2026-05-06 15:21 41.50439 -122.85586 39160 ft 460 kts 180°
2026-05-06 15:22 41.44033 -122.85402 39169 ft 459 kts 180°
2026-05-06 15:22 41.37639 -122.85219 39166 ft 459 kts 180°
2026-05-06 15:23 41.31254 -122.85013 39163 ft 459 kts 179°
2026-05-06 15:23 41.24869 -122.84643 39186 ft 459 kts 178°
2026-05-06 15:24 41.18483 -122.84230 39181 ft 459 kts 178°
2026-05-06 15:24 41.12095 -122.83832 39184 ft 460 kts 178°
2026-05-06 15:25 41.05745 -122.83450 39178 ft 460 kts 178°
2026-05-06 15:25 40.99338 -122.83071 39167 ft 461 kts 178°
2026-05-06 15:26 40.92922 -122.82692 39167 ft 461 kts 178°
2026-05-06 15:26 40.86517 -122.82314 39177 ft 461 kts 178°
2026-05-06 15:27 40.80105 -122.81935 39177 ft 461 kts 178°
2026-05-06 15:27 40.73683 -122.81557 39165 ft 462 kts 178°
2026-05-06 15:28 40.67252 -122.81179 39163 ft 463 kts 178°
2026-05-06 15:28 40.60800 -122.80801 39160 ft 464 kts 177°
2026-05-06 15:29 40.54394 -122.80425 39163 ft 464 kts 177°
2026-05-06 15:29 40.47939 -122.80048 39173 ft 464 kts 178°
2026-05-06 15:30 40.41484 -122.79672 39170 ft 464 kts 177°
2026-05-06 15:30 40.35033 -122.79296 39173 ft 464 kts 177°
2026-05-06 15:31 40.28586 -122.78921 39169 ft 464 kts 177°
2026-05-06 15:31 40.22130 -122.78547 39159 ft 464 kts 177°
2026-05-06 15:32 40.12464 -122.77987 39172 ft 463 kts 177°
2026-05-06 15:32 40.06019 -122.77615 39167 ft 463 kts 177°
2026-05-06 15:33 39.99576 -122.77244 39150 ft 464 kts 177°
2026-05-06 15:33 39.93131 -122.76873 39153 ft 464 kts 177°
2026-05-06 15:34 39.86683 -122.76502 39093 ft 465 kts 177°
2026-05-06 15:34 39.83471 -122.76318 38845 ft 468 kts 176°
2026-05-06 15:34 39.80186 -122.76130 38564 ft 466 kts 176°
2026-05-06 15:35 39.76950 -122.75944 38280 ft 464 kts 176°
2026-05-06 15:35 39.73725 -122.75760 37591 ft 465 kts 177°
2026-05-06 15:35 39.70552 -122.75578 37019 ft 462 kts 176°
2026-05-06 15:35 39.67340 -122.75394 36351 ft 462 kts 176°
2026-05-06 15:36 39.64133 -122.75211 35668 ft 462 kts 176°
2026-05-06 15:36 39.60908 -122.75025 34946 ft 465 kts 176°
2026-05-06 15:36 39.57655 -122.74839 34165 ft 470 kts 176°
2026-05-06 15:36 39.54827 -122.74678 33394 ft 474 kts 176°
2026-05-06 15:37 39.51527 -122.74402 32556 ft 476 kts 172°
2026-05-06 15:37 39.48283 -122.73569 31779 ft 474 kts 162°
2026-05-06 15:37 39.45212 -122.72119 31250 ft 466 kts 156°
2026-05-06 15:37 39.42223 -122.70534 30654 ft 462 kts 156°
2026-05-06 15:38 39.39261 -122.68958 30063 ft 459 kts 157°
2026-05-06 15:38 39.36356 -122.67432 29402 ft 455 kts 157°
2026-05-06 15:38 39.33433 -122.65918 28801 ft 450 kts 157°
2026-05-06 15:38 39.30535 -122.64431 28209 ft 446 kts 157°
2026-05-06 15:39 39.27667 -122.62965 27634 ft 441 kts 157°
2026-05-06 15:39 39.24823 -122.61515 27070 ft 438 kts 158°
2026-05-06 15:39 39.22002 -122.60078 26510 ft 434 kts 157°
2026-05-06 15:39 39.19157 -122.58825 25927 ft 432 kts 168°
2026-05-06 15:40 39.16182 -122.58333 25422 ft 429 kts 174°
2026-05-06 15:40 39.13222 -122.58024 24893 ft 426 kts 175°
2026-05-06 15:40 39.10277 -122.57699 24336 ft 424 kts 174°
2026-05-06 15:40 39.07351 -122.57318 23806 ft 421 kts 173°
2026-05-06 15:41 39.04448 -122.56911 23194 ft 419 kts 172°
2026-05-06 15:41 39.01580 -122.56364 22708 ft 413 kts 168°
2026-05-06 15:41 38.98785 -122.55672 22269 ft 406 kts 167°
2026-05-06 15:41 38.96040 -122.54942 21844 ft 401 kts 167°
2026-05-06 15:42 38.93317 -122.54216 21420 ft 396 kts 167°
2026-05-06 15:42 38.90625 -122.53511 21008 ft 394 kts 167°
2026-05-06 15:42 38.87945 -122.52824 20597 ft 393 kts 167°
2026-05-06 15:42 38.85253 -122.52143 20195 ft 395 kts 167°
2026-05-06 15:43 38.82555 -122.51466 19779 ft 396 kts 167°
2026-05-06 15:43 38.79858 -122.50792 19366 ft 394 kts 167°
2026-05-06 15:43 38.77202 -122.50129 18952 ft 393 kts 167°
2026-05-06 15:43 38.74525 -122.49461 18529 ft 391 kts 167°
2026-05-06 15:44 38.71857 -122.48796 17891 ft 390 kts 167°
2026-05-06 15:44 38.69234 -122.48145 17432 ft 381 kts 167°
2026-05-06 15:44 38.66637 -122.47557 17006 ft 376 kts 170°
2026-05-06 15:44 38.64055 -122.47132 16604 ft 372 kts 172°
2026-05-06 15:45 38.61492 -122.46769 16211 ft 369 kts 172°
2026-05-06 15:45 38.58950 -122.46418 15821 ft 366 kts 172°
2026-05-06 15:45 38.56430 -122.46062 15434 ft 363 kts 172°
2026-05-06 15:45 38.53936 -122.45699 15054 ft 360 kts 172°
2026-05-06 15:46 38.51454 -122.45330 14681 ft 358 kts 172°
2026-05-06 15:46 38.48990 -122.44959 14313 ft 356 kts 171°
2026-05-06 15:46 38.46533 -122.44586 13927 ft 355 kts 171°
2026-05-06 15:46 38.44087 -122.44214 13512 ft 353 kts 172°
2026-05-06 15:47 38.41656 -122.43843 13122 ft 351 kts 172°
2026-05-06 15:47 38.39234 -122.43475 12741 ft 349 kts 172°
2026-05-06 15:47 38.36827 -122.43108 12376 ft 347 kts 172°
2026-05-06 15:47 38.34434 -122.42744 12005 ft 345 kts 172°
2026-05-06 15:48 38.32057 -122.42382 11641 ft 343 kts 172°
2026-05-06 15:48 38.29689 -122.42022 11282 ft 341 kts 172°
2026-05-06 15:48 38.27368 -122.41671 10933 ft 339 kts 173°
2026-05-06 15:48 38.25038 -122.41319 10573 ft 335 kts 173°
2026-05-06 15:49 38.22740 -122.40971 10226 ft 330 kts 173°
2026-05-06 15:49 38.20477 -122.40624 9891 ft 324 kts 173°
2026-05-06 15:49 38.18303 -122.40300 9897 ft 310 kts 174°
2026-05-06 15:49 38.16198 -122.39987 9810 ft 298 kts 172°
2026-05-06 15:50 38.14161 -122.39666 9361 ft 295 kts 172°
2026-05-06 15:50 38.12118 -122.39345 8776 ft 296 kts 172°
2026-05-06 15:50 38.10074 -122.39028 8277 ft 295 kts 172°
2026-05-06 15:50 38.08041 -122.38715 7936 ft 294 kts 172°
2026-05-06 15:51 38.06692 -122.38509 7717 ft 295 kts 172°
2026-05-06 15:51 38.04647 -122.38196 7389 ft 296 kts 172°
2026-05-06 15:51 38.02611 -122.37845 7066 ft 294 kts 165°
2026-05-06 15:51 38.00817 -122.36730 6909 ft 283 kts 142°
2026-05-06 15:52 37.99240 -122.35248 6743 ft 283 kts 141°
2026-05-06 15:52 37.97662 -122.33721 6632 ft 286 kts 140°
2026-05-06 15:52 37.96071 -122.32180 6485 ft 289 kts 140°
2026-05-06 15:52 37.94469 -122.30633 6343 ft 289 kts 141°
2026-05-06 15:53 37.92869 -122.29096 6202 ft 288 kts 141°
2026-05-06 15:53 37.91274 -122.27569 6068 ft 287 kts 141°